Location: Boca de Tacagua
(10.5333°N, 66.9833°W)
Time: 02:23:17
(UTC+00:00)

X-37B - Pass Details

Date: 02 December 2022
Orbit: 277 x 277 km, 45.0° (Epoch: 01 November)

Event Time Altitude Azimuth Distance (km) Brightness Sun altitude
Exits shadow 09:03:31 20° 153° (SSE) 722 2.5 -20.9°
Drops below altitude 10° 09:04:26 10° 147° (SSE) 1,089 3.6 -20.7°
Sets 09:06:21 0° 143° (SE) 1,900 5.0 -20.3°
